sat.trackr.live / text

‹ back to catalog

KUIPER-00023

NORAD 63737 · 2025-088P

PAYLOAD ACTIVE UNKNOWN

§ Identity

Operator
Country
US
Launch date
2025-04-28
Launch site
AFETR
Launch vehicle
Mass (kg)
RCS (m²)

External: N2YO · Heavens-Above · Gunter

§ Orbital elements

Epoch: 2026-09-21T19:46:15.589920Z

Period
97.30 min
Inclination
51.9020°
Eccentricity
0.0000406
Mean motion
14.79936063 rev/d
Perigee alt
629.2 km
Apogee alt
629.8 km
Semi-major
7,007.7 km
B*
1.1140e-4
RAAN
318.2478°
Arg perigee
65.9089°
Mean anomaly
294.1916°
Rev number
7,680

§ Raw data

KUIPER-000231 63737U 25088P   26264.82379155  .00000628  00000+0  11140-3 0  99942 63737  51.9020 318.2478 0000406  65.9089 294.1916 14.79936063 76806

JSON: /api/v1/satellites/63737 · /tle

For live sub-satellite position, see the globe view (requires WebGL).

§ Visibility from observer

Set your observer location to see the next 7 days of passes ≥ 10°. The values pass through the URL so the page stays shareable.

No JS? Fill the form by hand. The geolocation button needs JavaScript.